Regional Weather Roundup
Issued by NWS Midland/Odessa, TX

Skip options and go directly to product.
Home | Oldest Version | Previous Version | Current Version | All | Graphics & Text | Save Text | Print | Product List | Glossary On

Skip product version selection by date and time.   
881
ASUS44 KMAF 240110
RWRMAF
MIDLAND AREA WEATHER ROUNDUP
NATIONAL WEATHER SERVICE MIDLAND TX
700 PM CST THU FEB 23 2017

...IN SOUTHWEST TEXAS AND SOUTHEAST NEW MEXICO...

CITY           SKY/WX    TMP DP  RH WIND       PRES   REMARKS
ALPINE         CLEAR     72  12  10 W21       29.81R
ANDREWS        CLOUDY    72  17  12 W16G24    29.64R
ARTESIA        CLEAR     66  14  13 W25G33    29.67R
BIG SPRING     CLEAR     75  20  13 W16       29.62R
CARLSBAD       CLEAR     69  17  13 W20       29.66R
DRYDEN           N/A     83  17   8 W9        29.59
FORT STOCKTON  CLEAR     78  17  10 W17G25    29.64R
GUAD PASS      CLEAR     61  12  14 SW48G59   29.72R
HOBBS          CLEAR     68  18  14 SW24G35   29.65R
MARFA          CLEAR     68  12  11 W21       29.79R
MIDLAND AIRPK  CLEAR     76  17  11 W16G26    29.63R
MIDLAND INTL   CLEAR     75  17  11 W17G25    29.62R
ODESSA         CLEAR     75  14  10 W17       29.64R
PECOS          CLEAR     76  18  11 W15G23    29.64R
PRESIDIO       FAIR      83  16   8 W12G21    29.67R
SEMINOLE       CLEAR     69  20  16 W13       29.66R
SNYDER         CLEAR     75  24  15 W16       29.58R
WINK             N/A     76  11   8 MISG      29.61R
$$
...OTHER STATIONS IN TEXAS...

CITY           SKY/WX    TMP DP  RH WIND       PRES   REMARKS
ABILENE        CLEAR     78  27  15 W10       29.53R
AMARILLO       CLEAR     59   9  13 NW9       29.52R
AUSTIN         CLEAR     77  54  44 S10       29.57R
BROWNSVILLE    CLEAR     74  66  76 SE13      29.61R
CORPUS CHRISTI PTCLDY    73  67  81 SE23      29.59S
DALLAS FTW     PTCLDY    81  50  33 S16       29.48R
DEL RIO        CLEAR     84  34  16 E5        29.53R
EL PASO        CLEAR     68  12  11 W24G35    29.74R
HOUSTON INT    CLEAR     72  55  55 SE13      29.67R
LUBBOCK        CLEAR     70  16  12 SW20G29   29.56R
SAN ANGELO     CLEAR     79  28  15 SW5       29.55R
SAN ANTONIO    CLEAR     80  47  31 SE9       29.57R
WACO           CLEAR     77  56  48 S14       29.54R
WICHITA FALLS  NOT AVBL
$$
...OTHER LOCATIONS IN NEW MEXICO...

CITY           SKY/WX    TMP DP  RH WIND       PRES   REMARKS
ALAMAGORDO     CLEAR     61  16  17 W15G21    29.75R
ALBUQUERQUE    PTCLDY    50   7  17 W17G28    29.70R
CANNON AFB     CLEAR     63   1   8 W20G26    29.57R
CLOVIS         CLEAR     63   7  11 SW18G25   29.57R
HOLLOMAN AFB   CLEAR     62  17  17 W22       29.77R
ROSWELL        CLEAR     66   4   8 W28G33      N/A
RUIDOSO        CLEAR     46   7  19 SW37G49   29.73R WCI  36
SANTA FE       CLEAR     40   6  24 W12G21    29.70R WCI  33
TRUTH OR CONSE PTCLDY    56   1  10 W20G30    29.75R
TUCUMCARI      CLEAR     59   4  11 W17       29.55R
$$